TimeCDT,TemperatureF,Dew PointF,Humidity,Sea Level PressureIn,VisibilityMPH,Wind Direction,Wind SpeedMPH,Gust SpeedMPH,PrecipitationIn,Events,Conditions,WindDirDegrees,DateUTC
12:15 AM,32.0,28.4,87,30.25,10.0,West,9.2,-,0.00,,Clear,270,2012-10-05 05:15:00
12:35 AM,32.0,28.4,87,30.25,10.0,West,10.4,-,0.00,,Clear,270,2012-10-05 05:35:00
12:55 AM,30.2,28.4,93,30.25,10.0,West,10.4,-,0.00,,Clear,260,2012-10-05 05:55:00
1:15 AM,30.2,28.4,93,30.25,10.0,West,10.4,-,0.00,,Clear,270,2012-10-05 06:15:00
1:35 AM,30.2,28.4,93,30.25,10.0,West,10.4,-,0.00,,Clear,280,2012-10-05 06:35:00
1:55 AM,32.0,28.4,87,30.25,10.0,West,10.4,-,0.00,,Clear,280,2012-10-05 06:55:00
2:15 AM,32.0,28.4,87,30.25,10.0,West,10.4,-,0.00,,Clear,280,2012-10-05 07:15:00
2:35 AM,32.0,28.4,87,30.25,10.0,West,10.4,-,0.00,,Clear,280,2012-10-05 07:35:00
3:15 AM,32.0,26.6,80,30.24,10.0,WNW,11.5,-,0.00,,Clear,290,2012-10-05 08:15:00
3:35 AM,32.0,26.6,80,30.24,10.0,West,12.7,17.3,0.00,,Clear,280,2012-10-05 08:35:00
3:55 AM,30.2,26.6,86,30.24,10.0,West,11.5,-,0.00,,Clear,280,2012-10-05 08:55:00
4:15 AM,30.2,26.6,86,30.23,10.0,West,10.4,-,0.00,,Clear,280,2012-10-05 09:15:00
4:35 AM,30.2,26.6,86,30.24,10.0,West,11.5,-,0.00,,Clear,270,2012-10-05 09:35:00
4:55 AM,30.2,26.6,86,30.23,10.0,West,13.8,-,0.00,,Clear,270,2012-10-05 09:55:00
5:15 AM,28.4,24.8,86,30.23,10.0,West,12.7,-,0.00,,Clear,280,2012-10-05 10:15:00
5:35 AM,30.2,24.8,80,30.23,10.0,West,11.5,-,0.00,,Clear,280,2012-10-05 10:35:00
5:55 AM,30.2,26.6,86,30.23,10.0,WNW,11.5,-,0.00,,Clear,290,2012-10-05 10:55:00
6:15 AM,30.2,24.8,80,30.23,10.0,WNW,13.8,-,0.00,,Clear,290,2012-10-05 11:15:00
6:35 AM,30.2,24.8,80,30.23,10.0,WNW,13.8,21.9,0.00,,Clear,290,2012-10-05 11:35:00
6:55 AM,30.2,24.8,80,30.23,10.0,WNW,15.0,-,0.00,,Clear,300,2012-10-05 11:55:00
7:15 AM,30.2,24.8,80,30.23,10.0,WNW,15.0,-,0.00,,Clear,290,2012-10-05 12:15:00
7:35 AM,30.2,24.8,80,30.24,10.0,WNW,11.5,-,0.00,,Clear,290,2012-10-05 12:35:00
7:55 AM,30.2,24.8,80,30.24,10.0,WNW,12.7,-,0.00,,Clear,290,2012-10-05 12:55:00
8:15 AM,30.2,24.8,80,30.24,10.0,WNW,12.7,-,0.00,,Clear,290,2012-10-05 13:15:00
8:35 AM,30.2,24.8,80,30.24,10.0,WNW,15.0,-,0.00,,Clear,290,2012-10-05 13:35:00
8:55 AM,32.0,24.8,75,30.25,10.0,WNW,17.3,24.2,0.00,,Clear,290,2012-10-05 13:55:00
9:15 AM,32.0,26.6,80,30.25,10.0,WNW,18.4,23.0,0.00,,Clear,300,2012-10-05 14:15:00
9:35 AM,32.0,26.6,80,30.25,10.0,WNW,20.7,25.3,0.00,,Clear,300,2012-10-05 14:35:00
9:55 AM,32.0,26.6,80,30.26,10.0,WNW,17.3,24.2,0.00,,Clear,300,2012-10-05 14:55:00
10:15 AM,33.8,26.6,75,30.26,10.0,NW,17.3,25.3,0.00,,Clear,310,2012-10-05 15:15:00
10:35 AM,33.8,26.6,75,30.26,10.0,NW,24.2,27.6,0.00,,Clear,320,2012-10-05 15:35:00
10:55 AM,35.6,26.6,70,30.26,10.0,NW,20.7,27.6,0.00,,Partly Cloudy,310,2012-10-05 15:55:00
11:15 AM,35.6,26.6,70,30.26,10.0,NW,21.9,29.9,0.00,,Clear,320,2012-10-05 16:15:00
11:35 AM,37.4,26.6,65,30.26,9.0,NW,24.2,28.8,0.00,,Clear,320,2012-10-05 16:35:00
11:55 AM,37.4,28.4,70,30.26,10.0,NW,24.2,27.6,0.00,,Partly Cloudy,320,2012-10-05 16:55:00
12:15 PM,39.2,28.4,65,30.26,10.0,NW,19.6,23.0,0.00,,Scattered Clouds,310,2012-10-05 17:15:00
12:35 PM,39.2,28.4,65,30.26,10.0,NW,16.1,25.3,0.00,,Scattered Clouds,310,2012-10-05 17:35:00
12:55 PM,41.0,28.4,61,30.26,10.0,NW,18.4,26.5,0.00,,Scattered Clouds,310,2012-10-05 17:55:00
1:15 PM,41.0,28.4,61,30.26,10.0,NW,20.7,28.8,0.00,,Mostly Cloudy,310,2012-10-05 18:15:00
1:35 PM,41.0,26.6,57,30.26,10.0,NW,24.2,29.9,0.00,,Overcast,320,2012-10-05 18:35:00
2:15 PM,41.0,26.6,57,30.26,10.0,NW,21.9,29.9,0.00,,Overcast,320,2012-10-05 19:15:00
2:35 PM,39.2,26.6,61,30.26,10.0,NNW,18.4,28.8,0.00,,Overcast,330,2012-10-05 19:35:00
2:55 PM,41.0,26.6,57,30.26,10.0,NNW,20.7,25.3,0.00,,Overcast,330,2012-10-05 19:55:00
3:15 PM,39.2,26.6,61,30.26,10.0,NW,20.7,27.6,0.00,,Overcast,320,2012-10-05 20:15:00
3:35 PM,39.2,26.6,61,30.26,10.0,NW,20.7,27.6,0.00,,Overcast,310,2012-10-05 20:35:00
3:55 PM,39.2,24.8,56,30.25,10.0,NW,25.3,29.9,0.00,,Overcast,320,2012-10-05 20:55:00
4:15 PM,39.2,24.8,56,30.25,10.0,NW,25.3,31.1,0.00,,Overcast,310,2012-10-05 21:15:00
4:35 PM,39.2,24.8,56,30.26,10.0,NW,17.3,-,0.00,,Overcast,310,2012-10-05 21:35:00
4:55 PM,39.2,24.8,56,30.25,10.0,NW,21.9,25.3,0.00,,Overcast,310,2012-10-05 21:55:00
5:15 PM,39.2,24.8,56,30.26,10.0,NW,23.0,27.6,0.00,,Overcast,310,2012-10-05 22:15:00
5:35 PM,39.2,26.6,61,30.26,10.0,NW,18.4,-,0.00,,Mostly Cloudy,320,2012-10-05 22:35:00
5:55 PM,39.2,24.8,56,30.26,10.0,NW,19.6,24.2,0.00,,Overcast,310,2012-10-05 22:55:00
6:15 PM,39.2,24.8,56,30.26,10.0,NW,18.4,23.0,0.00,,Overcast,310,2012-10-05 23:15:00
6:35 PM,39.2,24.8,56,30.27,10.0,NW,19.6,25.3,0.00,,Overcast,320,2012-10-05 23:35:00
6:55 PM,37.4,26.6,65,30.27,10.0,NNW,17.3,21.9,0.00,,Overcast,330,2012-10-05 23:55:00
7:15 PM,37.4,26.6,65,30.27,10.0,NNW,17.3,23.0,0.00,,Overcast,330,2012-10-06 00:15:00
7:35 PM,37.4,28.4,70,30.28,10.0,NNW,15.0,-,0.00,,Mostly Cloudy,330,2012-10-06 00:35:00
7:55 PM,35.6,30.2,81,30.29,10.0,NNW,16.1,-,0.00,,Overcast,330,2012-10-06 00:55:00
8:15 PM,35.6,30.2,81,30.30,10.0,NNW,15.0,23.0,0.00,,Mostly Cloudy,330,2012-10-06 01:15:00
8:35 PM,35.6,30.2,81,30.30,10.0,NW,16.1,-,0.00,,Partly Cloudy,320,2012-10-06 01:35:00
8:55 PM,35.6,32.0,87,30.30,10.0,NW,16.1,20.7,0.00,,Mostly Cloudy,320,2012-10-06 01:55:00
9:15 PM,33.8,32.0,93,30.30,10.0,NW,11.5,-,0.00,,Mostly Cloudy,310,2012-10-06 02:15:00
9:35 PM,33.8,32.0,93,30.31,10.0,NW,11.5,-,0.00,,Mostly Cloudy,310,2012-10-06 02:35:00
9:55 PM,33.8,32.0,93,30.31,10.0,WNW,10.4,-,0.00,,Mostly Cloudy,300,2012-10-06 02:55:00
10:15 PM,35.6,32.0,87,30.31,10.0,NW,13.8,-,0.00,,Mostly Cloudy,310,2012-10-06 03:15:00
10:35 PM,35.6,32.0,87,30.31,9.0,NW,17.3,-,0.00,,Overcast,310,2012-10-06 03:35:00
10:55 PM,33.8,32.0,93,30.31,10.0,NW,13.8,-,0.00,,Overcast,320,2012-10-06 03:55:00
11:15 PM,33.8,32.0,93,30.31,10.0,NNW,13.8,-,0.00,,Overcast,330,2012-10-06 04:15:00
11:35 PM,33.8,32.0,93,30.31,10.0,NNW,12.7,-,0.00,,Overcast,330,2012-10-06 04:35:00
11:55 PM,33.8,32.0,93,30.31,5.0,NW,11.5,16.1,0.00,,Overcast,320,2012-10-06 04:55:00